SCP
0 0 0 0 0 0 0 0 0 0 0 0 0 0 0 0 0 0 0 0 0 0 0 0 0 0 0 0 0 0 0 0 0 0 0 0 0 0 0 0 0 0 0
0 0 0 0 0 0 0 0 0 0 0 0 0 0 0 0 0 0 0 0 0 0 0 0 0 0 0 0 0 0 0 0 0 0 0 0 0 0 0 0 0 0 0
0 0 0 0 0 0 0 0 0 0 0 0 0 0 0 0 0 0 0 0 0 0 0 0 0 0 0 0 0 0 0 0 0 0 0 0 0 0 0 0 0 0 0
0 0 0 0 0 0 0 0 0 0 0 0 0 0 0 0 0 0 0 0 0 0 0 0 0 0 0 0 0 0 0 0 0 0 0 0 0 0 0 0 0 0 0
0 0 0 0 0 0 0 0 0 0 0 0 0 0 0 0 0 0 0 0 0 0 0 0 0 0 0 0 0 0 0 0 0 0 0 0 0 0 0 0 0 0 0
1 0 0 0 0 0 0 0 0 0 0 0 1 0 0 0 0 0 0 0 0 0 0 0 0 0 0 0 0 0 0 0 0 0 0 0 0 0 0 0 0 0 0
0 0 0 0 0 0 0 0 0 0 0 0 1 1 0 0 0 0 0 0 0 0 0 0 0 0 0 0 0 0 0 0 0 0 0 0 0 0 0 0 0 0 0
0 1 0 0 0 0 0 0 0 0 0 0 1 0 0 0 0 0 0 0 0 0 0 0 0 0 0 0 0 0 0 0 0 0 0 0 0 0 0 0 0 0 0
0 0 0 0 0 0 0 0 0 0 0 0 0 0 0 0 0 0 0 0 0 0 0 0 0 0 0 0 0 0 0 0 0 0 0 0 0 0 0 0 0 0 0
1 0 0 0 0 0 0 0 0 0 0 0 0 0 0 0 0 0 0 0 0 0 0 0 0 0 0 0 0 0 0 0 0 0 0 0 0 0 0 0 0 0 0
1 1 0 0 0 0 0 0 0 0 0 0 0 0 0 0 0 0 0 0 0 0 0 0 0 0 0 0 0 0 0 0 0 0 0 0 0 0 0 0 0 0 0
1 0 1 0 0 0 0 0 0 0 0 0 0 0 0 0 0 0 0 0 0 0 0 0 0 0 0 0 0 0 0 0 0 0 0 0 0 0 0 0 0 0 0
1 1 1 1 0 0 0 1 1 0 0 0 0 0 0 0 0 0 0 0 0 0 0 0 0 0 0 0 0 0 0 0 0 0 0 0 0 0 0 0 0 0 0
1 1 0 0 0 0 0 1 1 0 0 0 0 0 0 0 0 0 0 0 0 0 0 0 0 0 0 0 0 0 0 0 0 0 0 0 0 0 0 0 0 0 0
1 1 0 0 0 0 0 0 0 0 0 0 0 0 0 0 0 0 0 0 0 0 0 0 0 0 0 0 0 0 0 0 0 0 0 0 0 0 0 0 0 0 0
1 1 0 0 0 1 0 0 0 0 0 0 0 0 0 0 0 0 0 0 0 0 0 0 0 0 0 0 0 0 0 0 0 0 0 0 0 0 0 0 0 0 0
0 0 1 1 0 0 0 0 0 0 0 0 0 0 0 0 0 0 0 0 0 0 0 0 0 0 0 0 0 0 0 0 0 0 0 0 0 0 0 0 0 0 -0
0 0 0 0 0 0 0 0 0 0 0 0 0 0 0 0 0 0 0 0 0 0 0 0 0 0 0 0 0 0 0 0 0 0 0 0 0 0 0 0 0 0 0
0 0 0 0 0 0 0 0 0 0 0 0 0 0 0 0 0 0 0 0 0 0 0 0 0 0 0 0 0 0 0 0 0 0 0 0 0 0 0 0 0 0 -0
0 0 0 0 0 0 0 0 0 -0 -0 0 0 0 0 0 0 0 0 0 0 0 0 0 0 0 0 0 0 0 0 0 0 0 0 0 0 0 0 0 0 0 -0
0 0 0 0 0 0 0 0 0 0 0 0 0 0 0 0 0 0 0 0 0 -0 0 0 0 0 0 0 0 0 0 0 0 0 0 0 0 0 0 0 0 0 -0
0 0 0 0 0 0 0 0 0 0 0 0 0 0 0 0 0 0 0 -0 -0 -0 0 0 0 0 0 0 0 0 0 0 0 0 0 0 0 0 0 0 0 0 -0
0 0 0 0 0 0 0 0 0 0 0 0 0 0 0 0 0 0 -0 -0 -0 -0 -0 0 0 0 0 0 0 0 0 0 0 0 0 0 0 0 0 0 0 0 -0
0 0 0 0 0 0 -0 -0 0 0 0 0 0 0 0 0 0 0 -0 -0 -0 -0 0 -0 -0 -0 0 0 0 0 0 0 0 0 0 0 0 0 0 0 0 -0 -0
0 0 0 0 0 0 0 0 0 0 0 -0 -0 0 0 0 0 -0 -0 -0 -0 -0 0 -0 -0 0 0 0 0 0 0 0 0 0 0 0 0 0 0 0 0 0 0
0 0 0 0 0 0 0 0 0 0 0 0 0 -0 0 0 0 0 -0 -0 -0 0 -0 -0 -0 0 0 0 0 0 0 0 0 0 0 0 0 0 0 0 0 0 0
Wind_Speed_500mb
53 52 50 47 44 40 37 34 29 24 21 24 25 20 10 8 5 11 19 6 1 6 10 13 15 21 24 22 25 27 27 35 39 40 45 48 50 50 53 55 51 44 44
57 55 50 47 43 39 39 36 32 25 23 22 16 24 16 12 11 17 11 4 8 7 10 14 15 20 25 22 25 26 30 38 39 48 55 57 59 60 56 46 43 40 40
61 58 53 45 43 31 32 34 33 30 24 21 10 20 23 15 15 14 6 6 9 10 6 12 14 18 20 18 30 32 35 40 52 56 61 62 60 53 47 43 42 42 43
65 64 59 46 42 32 34 36 35 29 23 16 14 24 22 20 15 11 9 6 6 10 7 10 13 15 14 17 32 40 39 44 48 58 63 62 51 48 44 43 43 41 43
69 72 63 51 46 42 40 39 38 32 26 21 24 25 25 29 19 16 11 5 6 7 8 11 15 19 17 22 29 35 41 47 55 62 62 53 45 43 42 44 45 44 43
66 75 69 59 53 51 47 46 47 36 30 25 24 17 24 25 17 16 8 6 5 4 5 13 19 18 16 22 31 36 44 49 56 58 54 52 48 51 51 46 42 43 44
65 66 79 66 64 60 51 54 49 48 40 36 24 30 29 18 13 9 8 9 10 13 15 21 20 18 17 28 33 40 50 53 54 52 50 57 53 55 56 45 43 41 45
79 67 83 70 67 72 64 63 63 55 46 42 33 42 31 23 21 18 12 13 13 15 19 15 14 15 21 29 35 48 52 54 47 40 52 55 54 56 53 45 42 44 44
89 82 77 82 74 77 73 71 65 53 56 49 44 39 21 14 31 19 12 10 12 14 12 14 13 14 20 29 37 47 56 47 36 44 49 51 55 55 50 40 40 39 41
86 90 91 80 84 80 77 75 66 57 59 56 51 52 41 25 19 18 19 13 8 10 14 12 10 11 18 26 37 48 43 36 42 45 47 55 57 55 48 37 37 38 39
81 95 97 87 90 86 79 75 70 65 62 62 58 48 36 30 25 22 30 30 22 17 17 8 6 6 15 31 42 42 36 39 45 42 48 59 66 52 45 38 38 41 43
95 83 93 98 95 95 85 79 72 69 66 58 57 54 44 41 34 27 26 40 37 29 23 12 1 10 23 34 40 37 35 38 38 39 49 60 61 48 46 40 41 44 47
79 93 90 100 86 75 75 75 72 71 65 63 56 50 44 37 27 24 32 48 47 41 22 11 4 14 25 35 41 42 37 33 32 40 53 64 59 52 49 44 46 46 46
70 80 75 61 67 64 70 75 67 69 66 61 55 46 46 39 29 27 34 44 49 35 25 11 5 16 26 33 37 38 31 30 31 44 59 61 59 53 50 46 44 44 42
53 59 74 75 97 80 78 83 75 70 64 57 55 53 46 39 28 29 29 35 38 35 21 12 12 12 22 31 37 33 30 24 38 51 56 56 55 53 51 48 45 46 41
46 52 62 67 71 87 90 88 67 63 62 56 51 51 44 33 26 23 27 34 35 34 27 19 10 7 21 31 25 28 24 27 39 46 47 53 61 54 48 45 40 45 43
37 43 50 57 58 76 101 76 72 45 49 50 47 44 36 28 26 24 26 32 35 27 25 25 9 8 23 22 20 22 17 27 37 36 46 49 58 71 65 60 56 49 44
29 32 30 41 39 45 58 68 33 44 34 28 40 40 37 32 29 27 28 30 27 18 12 19 7 10 17 18 17 17 22 24 26 35 38 44 55 65 68 61 68 65 53
32 26 26 25 27 36 49 52 65 58 48 33 45 38 37 36 36 33 27 26 22 21 17 11 10 13 13 15 16 20 25 29 35 36 42 49 53 69 80 71 61 64 58
31 38 34 36 36 46 50 56 71 66 51 53 43 38 40 39 38 33 27 28 25 20 16 15 16 15 20 24 24 30 35 34 31 35 38 46 55 57 77 93 73 64 63
32 38 45 48 57 61 55 67 68 67 63 61 56 52 49 43 32 23 29 30 21 20 22 22 23 25 28 28 34 33 36 36 39 34 32 43 51 60 61 84 91 64 61
40 43 44 45 61 72 77 68 69 70 70 69 69 63 55 37 43 36 35 31 25 21 26 24 33 33 32 29 31 33 37 42 53 41 44 47 48 56 65 74 91 68 58
43 60 52 64 64 49 58 75 83 81 70 75 69 65 50 48 42 42 38 37 36 31 34 34 40 37 33 30 26 30 38 42 51 50 47 44 44 55 60 64 85 71 55
43 57 69 65 67 68 62 66 63 76 77 67 67 57 46 54 48 44 46 46 44 45 47 47 45 42 37 30 26 28 29 41 51 52 53 55 46 46 61 60 76 72 51
60 60 61 64 64 70 70 71 68 78 84 73 57 58 59 56 51 45 44 47 49 50 50 49 46 41 29 29 30 30 43 48 56 58 54 48 47 41 54 61 67 72 49
56 56 57 57 53 59 69 68 83 94 85 70 68 64 59 59 49 41 41 43 49 48 42 42 41 34 29 29 33 40 46 53 50 46 57 43 45 51 43 55 67 69 52
Wind_Direction_500mb
218 217 219 220 224 224 223 221 219 221 217 208 200 189 226 246 250 244 202 219 7 330 3 359 0 354 353 355 356 358 351 341 338 334 332 329 325 321 318 317 320 322 316
222 221 221 220 221 222 225 221 221 218 206 202 213 210 231 256 235 208 213 240 337 329 359 341 351 357 358 350 353 342 335 332 339 330 326 328 326 323 321 326 328 326 323
226 222 224 218 216 214 217 204 207 201 204 209 222 221 239 253 205 203 238 319 334 338 323 350 338 336 347 341 335 329 334 332 330 327 326 327 325 324 329 334 330 328 327
227 226 223 218 210 200 194 193 195 200 202 224 229 223 229 249 228 241 276 303 327 2 324 332 302 324 325 323 327 330 327 327 327 328 329 330 332 334 338 334 330 327 323
226 226 224 219 213 202 203 208 206 210 214 233 228 223 246 226 235 240 249 273 334 348 300 267 290 310 325 323 318 327 332 330 332 331 333 342 352 348 340 335 334 331 321
226 223 221 219 221 211 212 220 208 206 209 220 211 221 200 200 244 227 237 287 320 226 264 246 276 288 293 317 330 335 338 335 334 334 344 356 357 350 345 337 328 324 321
226 226 219 220 221 217 218 211 199 209 228 204 210 180 187 182 206 215 233 270 251 233 240 244 264 295 312 327 339 341 339 334 334 337 354 357 359 351 344 340 336 332 329
233 229 219 217 217 218 218 212 217 224 212 211 210 196 171 173 185 193 232 259 251 245 260 241 253 289 320 331 336 337 333 330 337 355 356 356 355 352 346 349 351 346 339
233 228 224 220 216 213 217 218 222 216 202 206 213 207 177 192 187 179 205 220 234 261 237 223 252 291 319 328 336 325 329 333 353 356 352 353 353 351 349 353 347 349 351
232 225 227 224 219 216 219 222 222 214 203 206 206 216 226 234 179 173 184 179 217 235 229 228 260 303 329 327 325 329 336 356 355 350 350 349 352 352 352 351 349 346 346
235 228 227 224 221 215 219 221 220 214 211 211 213 208 216 225 206 190 180 167 165 170 195 210 233 331 331 332 338 345 356 358 352 346 346 347 348 354 354 358 351 350 346
238 235 224 224 223 215 216 219 221 217 219 218 216 220 225 221 217 211 183 173 176 166 179 184 220 336 343 344 346 359 355 351 347 343 342 344 354 355 1 358 353 347 345
250 241 234 226 228 214 219 220 221 217 216 219 215 213 216 222 217 205 185 174 178 163 155 150 18 342 340 345 349 348 347 354 345 343 344 351 357 359 358 353 346 344 343
246 248 242 216 221 230 221 225 225 216 218 217 207 206 205 214 215 207 196 184 167 168 165 173 345 315 337 347 341 341 343 347 346 347 353 0 357 353 346 347 349 348 345
244 252 246 236 236 231 220 222 213 207 210 209 208 208 207 211 215 213 200 207 207 168 151 170 242 311 335 335 337 337 341 354 352 3 360 0 2 3 7 8 3 358 351
236 239 235 214 224 225 218 210 206 213 207 200 203 205 205 212 205 193 186 195 209 216 159 191 203 304 326 331 335 342 2 359 359 2 24 38 35 25 17 9 5 5 7
233 236 231 240 234 208 220 205 185 204 205 194 191 198 202 199 184 177 172 175 186 194 199 164 165 322 330 339 338 349 356 355 3 48 44 28 33 33 30 25 22 21 18
227 229 236 235 219 146 146 151 170 175 193 213 198 198 187 172 166 160 160 152 155 152 163 142 123 353 352 357 355 3 7 7 54 53 31 29 37 35 30 26 20 17 14
219 214 212 213 217 199 203 206 190 197 196 216 199 192 174 169 154 152 147 145 136 128 129 111 68 31 29 48 30 35 46 55 72 45 39 46 44 38 35 33 28 19 15
205 204 208 205 192 176 167 171 177 180 187 203 184 178 162 155 145 156 156 131 132 132 111 84 78 73 58 67 56 61 69 74 61 55 55 50 38 33 32 32 30 23 20
206 204 195 183 183 189 192 183 178 183 184 173 167 165 154 153 158 153 133 129 133 125 105 92 86 80 78 77 71 74 73 68 64 49 36 31 30 30 29 29 26 25 22
183 190 186 187 182 179 169 178 183 178 171 167 166 158 158 168 139 134 133 123 107 106 96 92 88 82 82 82 84 74 74 62 55 57 45 40 34 35 26 25 21 22 26
180 179 186 173 166 179 192 184 178 169 170 165 163 160 160 143 143 143 137 130 116 100 88 81 84 84 88 91 89 77 67 59 54 44 46 45 38 42 28 26 19 19 31
169 161 158 156 161 160 163 165 169 166 166 165 167 162 154 147 147 143 136 122 109 93 83 77 75 85 85 89 76 63 59 62 58 48 35 31 38 43 40 32 22 20 32
173 173 176 171 172 171 178 174 172 163 160 160 155 147 147 141 139 140 132 123 113 98 84 73 75 78 93 86 82 78 69 65 56 43 35 31 28 44 40 29 24 24 32
184 181 177 181 184 174 177 180 167 163 156 148 146 146 147 136 134 132 128 122 111 101 87 77 73 80 90 101 88 81 65 55 47 42 31 36 42 38 45 34 31 28 36
Wind_Speed_850mb
53 52 50 47 44 40 37 34 29 24 21 24 25 20 10 8 5 11 19 6 1 6 10 13 15 21 24 22 25 27 27 35 39 40 45 48 50 50 53 55 51 44 44
57 55 50 47 43 39 39 36 32 25 23 22 16 24 16 12 11 17 11 4 8 7 10 14 15 20 25 22 25 26 30 38 39 48 55 57 59 60 56 46 43 40 40
61 58 53 45 43 31 32 34 33 30 24 21 10 20 23 15 15 14 6 6 9 10 6 12 14 18 20 18 30 32 35 40 52 56 61 62 60 53 47 43 42 42 43
65 64 59 46 42 32 34 36 35 29 23 16 14 24 22 20 15 11 9 6 6 10 7 10 13 15 14 17 32 40 39 44 48 58 63 62 51 48 44 43 43 41 43
69 72 63 51 46 42 40 39 38 32 26 21 24 25 25 29 19 16 11 5 6 7 8 11 15 19 17 22 29 35 41 47 55 62 62 53 45 43 42 44 45 44 43
66 75 69 59 53 51 47 46 47 36 30 25 24 17 24 25 17 16 8 6 5 4 5 13 19 18 16 22 31 36 44 49 56 58 54 52 48 51 51 46 42 43 44
65 66 79 66 64 60 51 54 49 48 40 36 24 30 29 18 13 9 8 9 10 13 15 21 20 18 17 28 33 40 50 53 54 52 50 57 53 55 56 45 43 41 45
79 67 83 70 67 72 64 63 63 55 46 42 33 42 31 23 21 18 12 13 13 15 19 15 14 15 21 29 35 48 52 54 47 40 52 55 54 56 53 45 42 44 44
89 82 77 82 74 77 73 71 65 53 56 49 44 39 21 14 31 19 12 10 12 14 12 14 13 14 20 29 37 47 56 47 36 44 49 51 55 55 50 40 40 39 41
86 90 91 80 84 80 77 75 66 57 59 56 51 52 41 25 19 18 19 13 8 10 14 12 10 11 18 26 37 48 43 36 42 45 47 55 57 55 48 37 37 38 39
81 95 97 87 90 86 79 75 70 65 62 62 58 48 36 30 25 22 30 30 22 17 17 8 6 6 15 31 42 42 36 39 45 42 48 59 66 52 45 38 38 41 43
95 83 93 98 95 95 85 79 72 69 66 58 57 54 44 41 34 27 26 40 37 29 23 12 1 10 23 34 40 37 35 38 38 39 49 60 61 48 46 40 41 44 47
79 93 90 100 86 75 75 75 72 71 65 63 56 50 44 37 27 24 32 48 47 41 22 11 4 14 25 35 41 42 37 33 32 40 53 64 59 52 49 44 46 46 46
70 80 75 61 67 64 70 75 67 69 66 61 55 46 46 39 29 27 34 44 49 35 25 11 5 16 26 33 37 38 31 30 31 44 59 61 59 53 50 46 44 44 42
53 59 74 75 97 80 78 83 75 70 64 57 55 53 46 39 28 29 29 35 38 35 21 12 12 12 22 31 37 33 30 24 38 51 56 56 55 53 51 48 45 46 41
46 52 62 67 71 87 90 88 67 63 62 56 51 51 44 33 26 23 27 34 35 34 27 19 10 7 21 31 25 28 24 27 39 46 47 53 61 54 48 45 40 45 43
37 43 50 57 58 76 101 76 72 45 49 50 47 44 36 28 26 24 26 32 35 27 25 25 9 8 23 22 20 22 17 27 37 36 46 49 58 71 65 60 56 49 44
29 32 30 41 39 45 58 68 33 44 34 28 40 40 37 32 29 27 28 30 27 18 12 19 7 10 17 18 17 17 22 24 26 35 38 44 55 65 68 61 68 65 53
32 26 26 25 27 36 49 52 65 58 48 33 45 38 37 36 36 33 27 26 22 21 17 11 10 13 13 15 16 20 25 29 35 36 42 49 53 69 80 71 61 64 58
31 38 34 36 36 46 50 56 71 66 51 53 43 38 40 39 38 33 27 28 25 20 16 15 16 15 20 24 24 30 35 34 31 35 38 46 55 57 77 93 73 64 63
32 38 45 48 57 61 55 67 68 67 63 61 56 52 49 43 32 23 29 30 21 20 22 22 23 25 28 28 34 33 36 36 39 34 32 43 51 60 61 84 91 64 61
40 43 44 45 61 72 77 68 69 70 70 69 69 63 55 37 43 36 35 31 25 21 26 24 33 33 32 29 31 33 37 42 53 41 44 47 48 56 65 74 91 68 58
43 60 52 64 64 49 58 75 83 81 70 75 69 65 50 48 42 42 38 37 36 31 34 34 40 37 33 30 26 30 38 42 51 50 47 44 44 55 60 64 85 71 55
43 57 69 65 67 68 62 66 63 76 77 67 67 57 46 54 48 44 46 46 44 45 47 47 45 42 37 30 26 28 29 41 51 52 53 55 46 46 61 60 76 72 51
60 60 61 64 64 70 70 71 68 78 84 73 57 58 59 56 51 45 44 47 49 50 50 49 46 41 29 29 30 30 43 48 56 58 54 48 47 41 54 61 67 72 49
56 56 57 57 53 59 69 68 83 94 85 70 68 64 59 59 49 41 41 43 49 48 42 42 41 34 29 29 33 40 46 53 50 46 57 43 45 51 43 55 67 69 52
Wind_Direction_850mb
218 217 219 220 224 224 223 221 219 221 217 208 200 189 226 246 250 244 202 219 7 330 3 359 0 354 353 355 356 358 351 341 338 334 332 329 325 321 318 317 320 322 316
222 221 221 220 221 222 225 221 221 218 206 202 213 210 231 256 235 208 213 240 337 329 359 341 351 357 358 350 353 342 335 332 339 330 326 328 326 323 321 326 328 326 323
226 222 224 218 216 214 217 204 207 201 204 209 222 221 239 253 205 203 238 319 334 338 323 350 338 336 347 341 335 329 334 332 330 327 326 327 325 324 329 334 330 328 327
227 226 223 218 210 200 194 193 195 200 202 224 229 223 229 249 228 241 276 303 327 2 324 332 302 324 325 323 327 330 327 327 327 328 329 330 332 334 338 334 330 327 323
226 226 224 219 213 202 203 208 206 210 214 233 228 223 246 226 235 240 249 273 334 348 300 267 290 310 325 323 318 327 332 330 332 331 333 342 352 348 340 335 334 331 321
226 223 221 219 221 211 212 220 208 206 209 220 211 221 200 200 244 227 237 287 320 226 264 246 276 288 293 317 330 335 338 335 334 334 344 356 357 350 345 337 328 324 321
226 226 219 220 221 217 218 211 199 209 228 204 210 180 187 182 206 215 233 270 251 233 240 244 264 295 312 327 339 341 339 334 334 337 354 357 359 351 344 340 336 332 329
233 229 219 217 217 218 218 212 217 224 212 211 210 196 171 173 185 193 232 259 251 245 260 241 253 289 320 331 336 337 333 330 337 355 356 356 355 352 346 349 351 346 339
233 228 224 220 216 213 217 218 222 216 202 206 213 207 177 192 187 179 205 220 234 261 237 223 252 291 319 328 336 325 329 333 353 356 352 353 353 351 349 353 347 349 351
232 225 227 224 219 216 219 222 222 214 203 206 206 216 226 234 179 173 184 179 217 235 229 228 260 303 329 327 325 329 336 356 355 350 350 349 352 352 352 351 349 346 346
235 228 227 224 221 215 219 221 220 214 211 211 213 208 216 225 206 190 180 167 165 170 195 210 233 331 331 332 338 345 356 358 352 346 346 347 348 354 354 358 351 350 346
238 235 224 224 223 215 216 219 221 217 219 218 216 220 225 221 217 211 183 173 176 166 179 184 220 336 343 344 346 359 355 351 347 343 342 344 354 355 1 358 353 347 345
250 241 234 226 228 214 219 220 221 217 216 219 215 213 216 222 217 205 185 174 178 163 155 150 18 342 340 345 349 348 347 354 345 343 344 351 357 359 358 353 346 344 343
246 248 242 216 221 230 221 225 225 216 218 217 207 206 205 214 215 207 196 184 167 168 165 173 345 315 337 347 341 341 343 347 346 347 353 0 357 353 346 347 349 348 345
244 252 246 236 236 231 220 222 213 207 210 209 208 208 207 211 215 213 200 207 207 168 151 170 242 311 335 335 337 337 341 354 352 3 360 0 2 3 7 8 3 358 351
236 239 235 214 224 225 218 210 206 213 207 200 203 205 205 212 205 193 186 195 209 216 159 191 203 304 326 331 335 342 2 359 359 2 24 38 35 25 17 9 5 5 7
233 236 231 240 234 208 220 205 185 204 205 194 191 198 202 199 184 177 172 175 186 194 199 164 165 322 330 339 338 349 356 355 3 48 44 28 33 33 30 25 22 21 18
227 229 236 235 219 146 146 151 170 175 193 213 198 198 187 172 166 160 160 152 155 152 163 142 123 353 352 357 355 3 7 7 54 53 31 29 37 35 30 26 20 17 14
219 214 212 213 217 199 203 206 190 197 196 216 199 192 174 169 154 152 147 145 136 128 129 111 68 31 29 48 30 35 46 55 72 45 39 46 44 38 35 33 28 19 15
205 204 208 205 192 176 167 171 177 180 187 203 184 178 162 155 145 156 156 131 132 132 111 84 78 73 58 67 56 61 69 74 61 55 55 50 38 33 32 32 30 23 20
206 204 195 183 183 189 192 183 178 183 184 173 167 165 154 153 158 153 133 129 133 125 105 92 86 80 78 77 71 74 73 68 64 49 36 31 30 30 29 29 26 25 22
183 190 186 187 182 179 169 178 183 178 171 167 166 158 158 168 139 134 133 123 107 106 96 92 88 82 82 82 84 74 74 62 55 57 45 40 34 35 26 25 21 22 26
180 179 186 173 166 179 192 184 178 169 170 165 163 160 160 143 143 143 137 130 116 100 88 81 84 84 88 91 89 77 67 59 54 44 46 45 38 42 28 26 19 19 31
169 161 158 156 161 160 163 165 169 166 166 165 167 162 154 147 147 143 136 122 109 93 83 77 75 85 85 89 76 63 59 62 58 48 35 31 38 43 40 32 22 20 32
173 173 176 171 172 171 178 174 172 163 160 160 155 147 147 141 139 140 132 123 113 98 84 73 75 78 93 86 82 78 69 65 56 43 35 31 28 44 40 29 24 24 32
184 181 177 181 184 174 177 180 167 163 156 148 146 146 147 136 134 132 128 122 111 101 87 77 73 80 90 101 88 81 65 55 47 42 31 36 42 38 45 34 31 28 36